Theta_e
356 354 354 354 352 353 357 358 356 355 355 353 349 347 343 335 332 331 332 330 336 342 347 341 342 353 355 357 359 357 356 359 357 354 353 352 351 352 351 351 349 350 350 351 352 353 354 353 354 356 357 357 355 355 357 353 350 347 344 341 339 338 337 334 335 335 334 334 334 334 335 337 338 339
356 359 356 355 355 356 358 356 357 357 352 355 353 351 348 342 336 334 333 331 336 341 346 343 347 351 355 356 356 359 358 358 360 357 354 353 353 348 350 351 349 348 348 348 349 352 353 355 356 355 354 353 352 353 355 353 349 346 343 341 339 337 336 334 334 334 333 333 334 333 334 336 336 336
356 354 353 353 356 358 356 357 353 358 358 353 355 354 352 344 342 341 334 333 336 346 344 348 351 352 352 355 355 356 356 360 359 357 355 354 354 351 353 351 348 346 345 345 345 347 348 350 350 349 348 348 348 350 354 353 350 347 343 339 338 336 334 333 332 333 332 331 332 332 332 333 334 334
357 353 352 352 353 356 355 351 354 357 358 356 354 352 352 347 346 345 340 337 339 343 348 348 352 355 354 357 355 352 355 360 360 358 355 357 357 358 358 355 351 347 345 344 344 343 343 344 345 347 348 348 349 351 352 351 349 346 343 339 336 334 333 332 331 331 330 330 330 330 330 331 332 332
354 354 353 352 352 353 351 350 356 356 354 354 353 352 350 348 348 346 342 339 341 344 346 350 351 355 357 354 352 353 354 354 357 359 359 359 358 359 360 360 353 349 345 343 342 342 342 341 341 343 346 347 349 351 352 350 347 345 341 339 334 330 331 331 329 330 329 328 328 328 328 329 330 331
353 353 351 352 353 353 352 352 352 351 350 351 351 350 352 350 350 349 347 343 340 341 344 347 351 352 356 351 350 351 352 352 356 355 355 357 357 358 358 355 355 350 347 343 339 339 339 339 340 341 343 345 346 347 346 346 341 340 337 333 330 329 329 328 328 329 327 327 327 327 326 327 328 329
352 350 350 351 353 357 353 351 351 351 349 349 348 348 349 349 349 349 350 346 343 343 345 345 347 348 349 350 352 353 353 355 355 353 355 355 357 359 358 357 356 350 345 343 340 337 337 338 339 339 339 341 341 341 341 338 337 334 331 328 328 329 329 327 327 327 325 324 325 325 325 325 327 327
353 351 350 351 350 351 350 349 349 350 350 349 348 346 345 347 348 348 349 350 347 344 343 343 347 348 347 349 351 354 356 356 356 356 356 356 356 357 359 358 357 352 345 342 340 338 337 337 337 337 337 337 335 334 335 333 333 331 328 327 326 326 326 324 324 324 323 322 322 322 322 323 325 325
354 353 352 352 350 349 348 348 348 350 349 350 349 348 347 347 348 349 349 349 349 346 344 344 344 347 348 350 352 355 354 353 353 353 354 356 356 356 357 358 359 350 345 343 340 337 336 337 337 336 335 334 333 332 331 331 331 329 327 325 324 324 324 323 321 322 321 320 320 319 319 321 322 324
353 353 352 351 351 350 349 348 347 346 347 349 348 346 346 345 345 345 346 347 346 346 346 344 342 341 348 349 349 350 350 350 351 352 353 351 352 352 353 355 359 360 358 354 350 339 336 336 333 334 335 333 331 331 331 330 329 327 324 320 320 322 323 322 323 321 320 319 319 319 318 319 320 323
351 351 352 351 351 350 349 348 347 346 345 345 344 345 345 346 345 344 344 345 345 345 344 345 345 345 346 347 347 350 350 352 352 350 349 346 346 346 347 350 353 358 358 350 346 347 345 343 341 333 329 330 329 330 329 328 327 326 322 319 318 319 319 319 320 320 319 319 318 316 314 314 317 321
352 352 352 352 351 351 350 349 348 347 346 345 344 345 345 346 345 345 345 344 343 343 343 343 344 342 345 344 349 351 347 347 345 345 344 341 342 345 345 348 351 353 352 352 353 348 344 342 340 333 332 332 332 331 331 332 332 330 326 322 322 321 319 319 319 319 318 317 315 314 314 313 314 317
351 351 351 351 351 353 361 359 356 355 355 347 344 345 345 345 344 343 342 342 340 340 341 342 344 343 344 345 345 344 343 343 343 345 342 343 346 346 345 348 351 354 354 353 352 351 351 349 347 346 344 344 339 336 335 336 337 333 326 323 323 323 322 320 319 319 319 317 316 314 313 313 313 316
351 351 350 351 361 363 366 362 354 347 351 355 350 345 342 342 343 342 341 340 340 341 340 341 342 341 342 343 344 344 345 346 344 344 345 343 345 343 344 345 345 352 352 349 349 348 350 351 349 346 346 347 348 344 339 338 338 336 330 326 324 323 322 320 320 319 318 317 316 315 313 313 314 313
350 350 350 350 356 361 366 361 359 351 345 347 348 350 353 353 343 340 340 341 342 342 343 343 343 343 343 345 347 346 347 347 346 344 343 342 340 338 336 335 338 343 351 346 339 343 345 349 348 349 349 351 347 344 344 339 336 330 329 327 325 323 322 322 322 320 318 316 315 314 313 313 314 313
348 348 349 349 350 349 349 349 349 351 349 344 343 343 343 345 348 350 345 341 339 340 342 342 344 345 345 346 346 347 347 347 346 346 344 343 341 340 336 335 336 337 353 344 343 344 339 349 349 349 352 355 355 352 341 335 334 331 328 327 326 324 323 322 323 323 321 319 318 318 317 316 316 315
346 347 347 347 347 347 359 359 350 345 344 343 341 341 340 342 341 336 336 341 346 342 342 342 342 344 345 345 346 348 347 346 345 344 342 342 341 341 339 340 337 345 348 345 342 344 345 348 346 348 351 351 352 354 344 338 334 331 328 327 326 324 323 322 322 322 321 320 318 317 316 315 314 314
348 346 345 345 346 346 346 346 345 343 342 341 341 342 342 342 347 345 339 338 339 344 345 344 343 345 348 347 347 350 349 347 347 345 344 345 343 343 344 346 346 346 353 347 343 343 347 349 349 347 349 350 349 349 343 338 334 331 328 326 324 323 322 322 321 321 321 320 318 316 314 312 312 313
349 347 347 345 345 345 344 345 346 343 341 340 340 339 340 341 342 342 342 342 343 343 344 344 345 346 346 347 348 348 347 348 347 347 346 346 347 348 347 346 347 348 350 350 346 343 348 345 344 347 349 349 349 349 340 335 330 329 326 325 324 322 321 321 321 320 319 320 318 316 314 312 311 310
348 347 346 345 345 344 344 349 343 348 347 341 339 338 338 339 341 343 348 338 340 346 344 344 344 344 345 340 344 345 343 342 342 345 346 346 345 344 342 340 344 345 348 351 349 344 345 348 347 348 350 347 345 345 347 335 327 325 324 324 322 321 319 319 320 319 319 319 318 316 313 310 309 308
345 344 344 343 343 343 343 343 333 333 347 343 342 341 340 341 341 342 346 338 331 331 330 330 331 331 330 329 327 326 327 335 338 338 336 337 339 336 335 337 338 339 343 347 352 347 345 348 347 347 347 343 342 343 346 329 323 322 321 321 321 319 318 318 317 317 318 318 317 316 315 310 308 309
342 344 354 356 345 342 343 337 331 331 339 340 340 340 340 340 340 341 344 348 349 332 326 326 327 328 329 329 328 328 328 328 335 336 337 342 339 336 336 334 336 337 339 342 350 340 343 344 338 337 339 340 342 343 331 326 322 321 319 317 318 318 317 317 316 317 317 317 317 315 313 310 309 312
342 343 351 354 351 348 343 331 329 328 338 341 342 342 341 341 341 343 344 344 345 347 348 349 345 343 339 341 340 342 335 333 344 340 340 342 339 338 338 337 336 334 337 342 347 340 340 339 339 337 333 331 333 335 330 326 321 322 323 321 320 316 317 316 314 314 314 315 315 315 312 310 310 315
342 343 343 346 334 329 330 329 326 324 324 338 341 342 341 341 341 345 345 345 346 346 347 347 349 350 351 352 351 350 350 350 350 344 341 341 340 339 339 339 337 335 335 337 345 340 338 338 336 335 337 332 328 331 327 326 323 323 322 321 321 320 319 319 316 313 312 312 313 313 312 310 310 314
343 343 345 346 339 327 323 322 321 319 318 326 342 344 344 345 346 349 345 347 359 351 349 348 348 349 350 351 351 351 350 350 350 348 343 343 342 341 340 339 338 338 341 344 343 341 340 337 337 332 333 332 332 333 333 328 326 324 325 322 322 322 319 319 318 318 313 311 309 309 309 310 309 313
344 345 346 347 342 329 323 320 316 313 314 316 330 336 326 325 326 338 346 346 346 346 348 348 349 350 350 350 351 351 351 351 351 351 350 346 344 344 344 343 341 340 342 348 338 345 342 341 342 339 334 333 336 335 336 336 332 326 325 323 323 323 321 321 320 319 318 317 316 312 312 311 311 311
345 346 348 350 348 326 317 314 313 313 314 319 328 319 317 319 322 331 336 340 343 344 346 346 347 348 349 350 350 351 352 353 354 354 353 352 349 346 346 346 346 346 348 350 351 347 345 342 341 340 338 337 335 332 334 337 338 327 325 325 325 324 323 321 320 321 320 318 318 313 310 310 311 312
341 342 344 344 326 314 310 312 313 313 314 325 318 315 316 318 323 331 334 335 340 342 342 343 344 345 347 349 349 350 351 352 353 354 355 356 355 353 351 349 348 348 349 349 350 349 346 345 344 343 342 339 336 336 337 335 340 331 330 329 327 326 326 323 322 325 326 321 319 318 316 315 316 314
339 331 321 317 315 316 315 315 314 316 320 316 313 312 313 321 329 332 333 335 337 338 340 341 343 344 346 348 349 351 352 352 353 351 352 353 354 355 356 356 354 353 352 352 352 351 349 347 346 346 342 341 340 340 339 340 337 338 337 333 329 330 329 327 325 324 325 323 321 319 318 318 319 320
320 318 316 316 316 317 320 326 331 334 337 328 324 322 325 329 330 332 334 335 337 338 339 341 342 344 346 347 349 350 351 350 350 350 350 350 349 350 349 348 350 353 356 356 355 354 353 351 349 348 345 343 343 343 343 341 340 343 344 342 343 339 334 331 328 326 328 326 324 323 323 322 322 322
334 334 330 328 323 323 326 327 328 330 334 336 339 340 339 336 335 335 335 337 338 339 340 341 343 345 347 348 348 347 348 348 349 350 348 348 349 348 347 345 346 347 349 353 356 355 354 353 352 350 346 346 344 343 344 344 343 344 344 345 343 343 337 333 332 329 328 328 328 328 327 326 325 329
332 333 332 330 337 339 338 337 335 334 335 336 336 339 341 341 341 342 342 341 340 341 343 345 345 345 345 345 346 347 347 347 349 349 348 347 347 347 346 343 343 345 346 346 350 354 358 354 353 351 350 348 346 346 346 346 345 346 346 346 344 347 343 338 335 332 331 330 329 329 330 328 326 325
325 328 331 333 335 337 338 340 342 343 343 342 341 342 342 343 343 341 339 338 339 340 340 340 342 343 345 345 346 346 346 347 348 349 348 348 348 347 345 344 344 344 343 344 344 346 352 354 353 353 351 350 350 349 346 343 345 348 348 348 347 347 348 344 341 338 333 331 331 332 331 331 329 328
321 326 330 332 334 336 337 338 340 342 344 344 345 345 338 344 345 344 341 339 340 341 341 341 341 342 342 343 344 345 345 347 348 347 341 347 347 345 345 344 345 346 344 344 345 345 346 350 352 353 351 351 351 350 349 346 345 347 349 350 349 349 350 349 343 340 336 335 334 332 332 332 332 330
325 326 328 330 333 335 337 338 340 342 343 344 345 346 346 346 345 341 341 341 339 338 339 340 341 342 342 342 343 344 344 345 346 347 345 346 346 346 345 345 345 345 346 345 346 347 345 345 347 348 348 350 352 355 352 353 349 349 349 350 351 350 351 350 348 341 337 336 336 335 336 334 332 330
323 326 328 329 332 334 336 338 340 341 342 343 345 346 347 348 345 341 340 341 342 341 342 342 342 342 343 343 343 343 343 341 344 345 345 346 345 345 346 345 345 345 346 346 346 347 346 346 346 345 344 345 345 346 350 348 350 355 351 351 353 352 352 352 349 348 339 337 336 336 336 337 336 331
324 327 329 330 333 335 336 339 341 342 342 343 344 346 346 346 343 340 342 339 342 342 344 345 345 344 344 343 342 340 340 341 342 343 343 345 345 345 344 344 343 344 344 345 347 347 347 347 346 346 345 343 342 341 345 346 339 344 359 354 354 354 353 352 350 347 345 343 339 337 338 339 339 335
326 328 330 332 334 337 339 340 342 342 343 344 344 345 345 347 345 343 345 343 341 341 343 344 344 343 345 344 344 344 344 344 343 344 343 344 344 344 345 344 345 345 345 345 345 346 347 348 347 347 346 344 343 342 343 345 342 342 336 354 355 354 352 350 349 348 347 343 342 341 339 337 339 339
325 327 330 332 334 337 338 339 341 342 343 344 345 345 346 347 345 342 342 341 343 343 343 344 344 343 343 345 344 344 344 344 343 343 343 344 344 344 344 344 344 345 345 344 345 345 346 347 347 348 348 346 345 345 346 344 341 346 339 328 350 355 352 350 349 349 348 343 339 340 339 338 326 324
332 334 334 333 332 331 331 331 333 335 335 336 337 337 338 340 344 342 342 341 341 341 341 341 342 339 343 343 342 344 344 344 344 345 344 345 344 343 344 344 344 344 343 342 343 344 344 346 347 349 349 350 351 352 342 341 343 344 345 337 322 342 354 350 347 347 344 345 342 334 333 330 330 328
324 323 324 323 323 323 323 324 326 328 331 333 333 331 336 339 341 341 342 342 341 339 339 341 341 341 341 342 342 342 342 341 343 344 344 343 341 341 340 336 342 343 342 342 344 344 345 347 349 339 351 350 346 343 343 342 341 344 345 347 326 320 326 336 351 348 346 343 339 335 334 330 329 326
319 318 318 318 317 317 318 318 320 322 325 328 330 331 333 335 336 332 336 336 339 339 338 340 340 339 340 341 341 338 340 340 340 341 340 341 342 340 336 337 340 342 341 341 342 344 347 348 348 343 343 343 340 339 337 339 339 341 343 345 346 327 323 322 325 331 350 345 337 332 331 327 324 324
316 315 314 315 315 315 314 315 316 318 320 323 324 326 328 331 334 335 337 338 339 339 339 340 341 341 340 341 341 340 341 340 341 341 341 341 340 341 340 340 340 341 341 342 344 345 346 346 344 342 342 342 341 340 338 338 339 340 341 342 344 343 341 326 322 321 322 322 323 334 339 333 323 322
311 311 311 312 311 312 312 313 313 315 317 318 320 321 323 326 328 331 333 334 337 338 340 340 341 341 341 341 342 342 342 343 343 342 342 341 342 341 341 341 340 341 342 341 343 343 345 344 344 343 341 340 341 339 338 338 338 339 340 342 342 342 341 339 336 324 322 324 322 318 319 323 328 330
309 308 308 309 310 310 311 311 312 313 314 315 316 316 318 321 324 327 329 330 332 335 336 337 336 337 337 337 337 338 340 335 339 341 341 340 341 340 340 341 340 341 341 343 342 343 343 343 342 342 342 342 342 341 339 338 338 338 339 340 341 342 343 336 332 329 330 332 325 313 311 315 317 318
Wind_Speed
4 3 3 3 5 5 3 1 1 1 1 2 3 3 3 4 1 1 2 2 1 3 2 0 2 2 3 4 2 2 5 7 7 4 5 5 5 8 10 11 11 12 13 12 12 11 10 9 9 8 7 7 6 6 6 6 6 5 3 2 3 3 3 3 4 4 5 5 6 8 9 9 10 11
3 3 3 3 4 4 3 4 2 2 2 1 2 1 2 5 2 3 1 4 3 2 3 0 1 3 6 4 6 4 5 8 8 5 6 6 6 10 12 12 11 11 12 12 12 12 10 10 10 9 8 8 7 6 7 8 7 5 3 3 3 3 2 3 4 4 5 5 6 7 9 10 11 11
3 3 4 4 3 3 3 1 1 1 1 3 1 1 3 2 2 4 2 1 3 2 2 3 2 2 4 4 5 6 5 6 5 5 5 5 9 11 9 12 11 10 11 11 12 12 12 11 10 10 9 8 7 6 7 8 7 6 4 4 4 3 2 2 3 3 4 5 5 6 8 9 11 11
3 3 4 4 4 4 2 3 3 3 2 1 2 1 2 2 3 4 3 3 7 3 3 4 5 6 4 5 5 4 5 5 7 4 4 6 9 7 6 9 11 11 11 11 12 13 13 13 12 10 9 8 8 6 7 8 7 6 5 5 4 3 2 1 2 2 3 3 4 5 7 8 10 11
3 3 3 5 5 3 3 3 3 2 3 3 3 3 1 3 2 2 3 3 6 5 2 3 3 3 2 3 1 4 5 6 5 4 4 5 5 6 6 6 9 11 11 11 12 12 13 13 13 11 10 10 9 7 8 9 8 7 6 6 5 4 2 1 2 2 2 3 4 5 6 7 8 10
4 3 4 4 5 3 4 4 3 3 3 3 3 3 3 4 5 3 3 4 2 6 5 6 5 4 1 3 3 4 6 8 6 7 7 6 4 6 6 6 7 10 11 11 11 11 12 13 13 12 11 11 10 9 9 9 9 8 7 7 6 5 3 2 2 3 2 4 4 5 5 6 7 8
5 4 4 4 3 2 3 4 4 3 4 3 3 4 3 5 5 3 4 3 4 6 7 3 4 3 2 2 6 6 5 5 5 6 7 6 6 5 5 6 6 8 11 11 10 10 11 12 12 12 12 11 11 10 9 9 9 9 8 8 7 6 4 3 3 3 2 4 5 4 4 5 5 7
5 6 5 5 4 3 3 4 4 4 4 5 4 4 4 4 6 5 3 5 5 4 5 4 4 4 3 4 4 5 5 6 7 5 6 6 6 7 6 5 5 7 10 10 9 9 10 12 13 13 13 11 10 10 9 9 10 10 9 9 8 7 5 4 3 3 2 3 5 4 5 4 4 5
6 6 6 6 4 3 3 4 4 5 5 6 5 6 5 5 5 4 4 5 4 5 7 6 3 2 3 3 5 4 5 7 6 5 5 6 7 7 7 5 6 8 10 8 7 8 10 11 12 13 12 9 10 11 10 9 11 11 10 10 9 8 6 5 5 4 3 2 4 4 5 5 4 4
5 6 6 6 5 4 5 6 5 4 5 4 5 5 6 5 4 4 4 4 4 4 7 5 6 3 5 4 5 5 4 6 7 8 7 6 5 4 6 6 5 4 4 4 3 4 6 9 12 12 10 9 11 11 10 10 11 12 11 11 10 9 8 7 6 5 4 3 3 4 5 6 5 3
6 6 6 6 5 6 6 7 7 6 6 5 5 6 5 5 4 6 6 4 3 4 4 4 5 5 4 3 7 6 2 4 4 5 7 7 7 5 3 6 6 4 6 5 6 6 7 6 6 9 10 10 12 12 12 11 12 12 12 12 11 11 10 8 7 6 6 4 3 3 3 5 6 5
7 7 7 7 7 7 7 7 7 6 7 6 6 7 5 5 5 6 6 4 4 4 4 5 6 4 4 4 4 4 3 5 5 3 4 7 8 9 4 4 6 6 3 6 5 4 5 6 8 8 8 10 13 13 11 13 12 13 13 13 13 12 11 10 8 7 6 5 4 3 4 4 6 7
7 6 7 7 7 8 10 12 11 9 9 6 7 8 5 5 5 5 5 6 6 6 6 7 5 5 6 6 6 8 7 8 9 7 1 4 7 7 7 8 6 6 6 4 4 5 3 4 6 5 5 7 9 10 12 10 14 15 14 14 14 14 12 11 9 8 7 6 5 4 4 4 6 7
7 7 7 7 11 13 13 13 14 14 14 13 10 9 6 7 6 6 6 6 6 7 7 7 7 7 7 8 7 6 7 7 4 6 6 6 8 7 7 6 5 3 1 3 4 6 4 4 7 4 6 6 5 6 5 8 10 12 15 15 15 15 13 12 10 8 7 6 6 5 5 5 6 6
8 7 7 7 9 11 12 11 14 14 15 15 16 16 15 11 8 7 8 8 7 7 7 7 5 6 8 9 7 7 8 6 6 6 6 6 6 6 5 7 7 3 3 3 3 5 3 3 6 7 7 6 4 5 8 12 13 15 13 15 15 15 14 13 11 9 8 7 7 6 5 6 5 6
7 8 8 7 7 7 9 9 9 11 13 14 15 16 16 16 16 14 10 9 7 6 7 7 8 6 8 8 6 7 5 8 6 6 6 6 7 7 6 6 7 5 0 2 5 10 2 4 5 6 7 6 4 6 10 14 14 14 14 15 15 15 15 14 12 10 9 8 7 6 6 6 6 6
9 8 8 8 7 8 13 11 9 8 9 12 14 14 14 14 14 14 15 13 10 7 6 8 9 8 7 7 8 6 4 3 5 6 6 6 6 7 8 8 5 7 2 1 4 10 7 3 3 6 8 7 6 6 9 13 14 14 14 15 15 15 15 14 12 10 9 8 8 7 7 7 6 6
10 9 9 9 9 8 8 8 8 7 7 7 6 6 6 7 10 13 15 17 17 12 9 8 10 10 5 10 9 8 3 4 7 7 9 6 6 6 8 6 6 6 1 4 4 8 11 4 5 8 9 6 6 6 8 12 12 12 13 14 15 15 14 14 13 11 10 9 8 8 8 8 7 7
10 10 10 10 11 10 9 9 10 10 10 9 9 8 8 8 8 7 7 7 8 9 9 10 12 12 10 9 10 9 5 6 8 8 8 6 6 8 5 6 7 8 5 5 3 8 8 3 3 8 8 7 7 7 7 8 9 10 12 13 14 14 15 14 14 12 11 10 9 10 9 9 8 8
7 8 9 9 10 10 10 13 16 15 11 8 8 9 9 8 8 8 10 13 11 10 9 10 11 11 12 12 10 10 9 7 6 4 3 3 5 7 7 9 8 8 5 5 5 5 6 5 5 8 7 4 7 8 7 5 5 7 10 12 13 14 15 15 14 13 11 11 11 10 10 10 9 9
5 5 7 8 9 10 10 14 16 16 14 8 9 10 10 9 8 9 8 12 16 17 17 17 17 16 16 15 14 14 14 11 6 2 5 9 7 6 8 9 7 10 7 3 6 4 7 6 5 7 7 5 6 8 8 3 2 4 7 10 12 14 15 15 14 12 12 11 11 10 9 9 8 8
6 7 12 11 9 11 12 15 17 17 12 9 10 10 10 10 10 9 8 6 8 13 16 17 17 17 16 15 15 14 15 15 7 5 9 10 5 7 7 9 8 8 6 8 4 2 8 5 2 4 5 4 5 5 2 1 2 2 3 7 11 12 13 14 13 12 11 11 10 9 9 8 7 5
7 8 10 15 15 13 14 17 17 17 13 10 10 10 9 10 10 11 8 7 8 6 5 6 6 8 11 12 10 12 17 17 11 9 11 8 7 9 10 9 6 7 8 7 7 5 6 4 5 3 3 3 6 1 1 0 0 0 1 2 4 8 10 11 11 11 11 11 10 9 9 8 5 4
7 8 8 10 15 19 20 19 19 18 15 11 9 7 8 9 12 10 6 7 8 7 8 8 7 8 7 7 7 7 8 9 8 9 9 9 8 9 10 9 7 8 6 3 6 6 4 3 6 3 6 4 4 2 1 2 2 2 3 3 5 6 7 8 8 11 10 9 10 10 9 9 7 4
7 7 7 7 12 16 18 19 18 14 11 9 7 6 8 10 12 9 6 7 9 7 7 7 7 7 6 6 6 7 7 7 7 7 8 9 9 9 9 9 8 10 11 9 8 4 5 3 5 2 3 3 5 5 2 1 3 5 5 6 6 5 5 7 5 6 8 10 10 11 10 10 11 8
6 7 7 7 10 13 15 14 10 9 10 10 6 11 15 15 15 10 7 7 6 7 7 6 6 6 6 6 6 7 7 8 7 8 8 9 9 9 10 10 10 9 12 8 14 9 7 7 9 6 3 3 8 5 6 5 4 4 4 5 6 5 6 6 6 7 6 6 7 9 11 13 12 13
6 5 6 7 11 11 12 12 13 12 12 7 8 12 13 13 15 10 7 7 7 7 7 7 8 8 7 7 7 6 7 7 7 7 8 8 8 8 9 10 10 12 13 10 5 8 8 7 3 6 7 5 6 6 4 6 5 1 2 6 6 6 5 5 7 8 7 7 7 9 11 12 13 13
7 8 8 8 10 12 13 13 13 13 11 10 14 13 13 13 10 6 6 6 7 7 7 8 8 9 8 8 8 8 8 8 8 9 9 9 8 8 8 9 12 12 13 13 9 5 7 9 8 6 8 7 8 8 9 5 5 5 5 3 5 6 6 7 8 7 6 6 5 5 5 7 7 7
7 8 12 14 14 14 15 16 14 12 14 16 15 14 12 9 5 6 6 6 5 7 8 9 9 9 10 9 9 8 8 8 7 6 7 7 7 6 7 7 9 10 10 9 9 8 8 9 10 8 6 7 8 9 7 10 6 6 6 4 3 7 8 8 8 8 8 6 7 7 9 9 7 8
14 14 15 17 17 15 13 10 8 9 12 15 15 15 11 6 6 5 5 5 6 8 8 9 9 10 8 8 9 9 7 8 10 9 9 8 8 6 6 7 11 11 10 9 9 9 9 9 10 9 9 8 8 10 9 8 9 9 5 7 8 1 5 7 8 8 7 8 8 8 9 7 7 7
7 9 9 8 11 12 14 15 14 13 13 11 11 9 7 7 7 6 6 7 7 8 9 8 8 9 9 7 7 9 8 10 10 8 9 9 10 7 6 7 13 12 7 6 8 9 9 9 9 8 10 10 8 10 10 8 10 10 8 7 5 8 3 5 6 7 8 8 7 6 5 6 6 8
7 9 10 11 8 8 8 8 7 7 7 8 8 8 7 8 9 10 12 10 8 9 8 8 8 8 6 7 10 9 8 10 10 7 7 9 10 7 4 6 12 11 9 6 6 8 10 10 10 9 11 11 11 10 8 9 10 10 10 7 7 8 5 7 8 8 9 7 5 8 9 8 8 8
8 7 7 7 7 6 7 7 7 7 7 7 7 8 7 7 8 7 6 8 9 7 6 9 9 10 8 10 10 9 9 10 11 7 7 8 8 6 5 9 11 10 10 10 7 6 7 8 10 11 11 11 12 12 9 9 9 9 10 9 7 8 8 8 8 8 6 6 9 8 9 8 9 9
7 7 7 7 7 8 7 8 7 7 6 6 6 6 7 8 7 7 2 2 5 8 10 11 11 11 9 10 11 9 8 10 9 7 7 8 5 7 8 9 11 10 9 11 10 8 6 7 7 8 8 9 9 10 11 11 11 9 10 9 9 10 10 9 9 9 10 10 10 10 9 10 9 8
4 6 7 8 7 8 8 8 8 7 7 7 7 7 6 6 6 2 1 11 12 10 10 11 10 10 9 11 11 9 8 9 9 6 5 6 7 9 9 10 11 11 9 9 9 7 5 6 6 6 6 7 8 10 12 13 11 13 9 10 10 11 11 8 8 9 10 8 6 9 10 9 9 8
5 5 6 7 7 8 9 8 8 8 8 8 8 7 6 5 3 7 11 12 9 10 10 10 10 9 10 10 10 9 8 7 8 7 7 7 8 9 9 10 11 10 8 8 9 7 6 7 7 8 8 8 8 10 11 18 21 12 12 12 11 11 10 8 8 8 8 9 9 9 10 12 11 8
6 5 5 6 7 7 8 8 8 7 8 8 8 7 7 6 4 8 11 9 9 11 11 9 9 9 10 10 10 9 8 7 9 8 8 9 8 8 9 10 10 10 9 10 9 8 6 8 7 8 9 9 11 12 15 0 17 22 12 13 11 9 9 7 7 8 9 10 9 10 11 11 11 7
5 6 6 6 6 7 8 8 8 8 7 8 8 8 7 8 6 9 10 7 9 9 7 7 10 10 10 9 9 10 8 7 8 9 10 9 8 9 9 10 10 9 9 9 8 9 8 8 8 8 9 12 12 12 13 7 2 10 16 13 12 11 7 7 8 9 8 8 11 11 9 10 12 9
5 7 7 6 6 7 7 8 8 8 8 8 8 8 9 8 6 8 9 8 8 8 5 7 9 9 9 9 8 9 9 8 8 9 9 8 8 10 10 9 9 8 7 9 8 8 7 7 8 9 11 12 13 12 12 11 11 6 8 20 14 10 8 9 11 10 8 8 9 8 8 6 3 2
6 7 7 9 9 9 10 10 10 10 9 9 9 9 9 10 7 8 9 10 9 5 6 8 9 8 8 8 8 8 8 9 10 9 9 9 9 9 9 8 8 8 7 9 10 9 7 9 10 11 11 12 14 11 4 5 8 6 6 10 20 17 12 8 10 9 8 9 6 6 9 5 8 3
8 8 8 9 9 10 10 11 10 10 10 9 9 8 8 8 8 8 9 11 9 4 6 7 6 6 7 6 6 6 8 8 8 8 8 9 10 9 10 8 8 7 9 11 12 11 11 11 12 13 10 8 5 4 4 10 13 14 11 10 13 20 21 14 10 9 10 6 8 9 9 9 10 6
5 6 6 6 7 9 9 10 11 11 10 9 8 8 9 9 9 13 13 14 10 6 5 7 6 6 6 5 4 4 7 8 7 7 7 8 9 9 10 8 9 9 9 12 13 13 11 8 7 3 4 5 3 5 10 14 15 14 13 10 6 12 21 23 20 15 11 8 8 6 5 2 2 5
3 4 5 5 5 6 9 10 10 10 11 10 9 8 9 9 9 10 10 10 8 6 5 7 7 6 5 5 5 5 6 7 7 8 8 8 9 10 9 9 10 11 11 12 12 10 9 8 5 5 7 8 9 9 13 15 13 13 13 11 10 4 7 14 20 22 15 8 10 12 12 10 7 6
3 4 5 5 6 6 7 8 9 9 10 10 9 9 9 9 10 10 11 11 10 8 6 7 7 8 8 7 6 7 7 7 7 8 8 9 9 9 9 9 9 10 10 10 10 11 10 8 7 8 8 10 10 10 14 14 13 13 12 12 10 6 8 3 5 7 10 14 16 16 16 15 18 12
3 4 5 5 5 6 5 6 7 8 9 9 9 9 9 9 10 10 11 12 11 8 6 5 5 6 7 8 8 9 8 7 7 7 7 8 8 8 9 9 9 9 10 10 9 11 10 8 7 7 9 11 10 12 13 12 13 12 12 11 13 11 8 4 6 6 9 10 14 5 10 14 16 16
Wind_Direction
272 306 304 257 265 274 291 322 307 260 250 191 172 155 151 153 128 287 324 280 270 305 329 37 296 332 332 306 260 261 272 264 254 245 244 250 254 263 262 256 250 249 249 248 250 249 246 247 250 247 244 250 247 249 240 216 207 206 204 262 302 331 357 12 3 356 354 343 341 346 342 335 336 340
260 278 272 235 257 269 294 286 276 219 205 181 157 162 142 143 159 183 212 280 231 262 313 270 299 325 333 323 317 298 271 259 258 253 248 248 251 258 263 261 253 251 251 250 250 249 245 244 244 241 241 245 246 244 242 227 219 216 217 250 282 303 338 24 0 358 354 345 339 343 343 338 337 339
274 293 295 304 283 288 285 301 324 270 238 251 162 170 133 155 140 154 134 336 289 197 262 296 294 287 305 306 307 310 301 287 276 267 265 264 260 260 265 264 261 258 259 257 255 253 249 244 243 237 237 242 244 240 238 233 223 222 223 245 261 286 338 15 351 354 352 347 340 345 346 342 336 338
280 290 294 287 283 276 279 314 327 319 283 285 294 212 185 186 168 146 149 199 267 253 220 255 286 275 271 298 301 306 321 320 321 281 269 264 269 271 263 269 271 267 262 260 256 253 249 244 242 237 233 236 243 230 230 232 225 220 223 237 255 276 314 349 328 334 345 344 341 347 350 349 339 339
276 288 286 283 275 283 280 277 295 309 293 302 277 271 253 240 207 168 179 229 276 299 257 245 255 280 291 303 266 316 310 313 311 304 275 277 273 272 273 275 282 277 270 264 259 252 247 243 241 238 234 234 239 233 229 228 226 223 224 235 247 259 272 282 297 305 336 342 343 352 355 355 344 342
264 252 258 274 275 268 253 255 271 271 281 259 274 275 261 265 255 199 186 230 229 276 312 315 309 299 308 299 291 311 309 308 314 317 311 301 282 273 273 272 273 274 272 267 262 254 247 241 240 240 237 235 236 238 234 231 230 229 228 234 240 252 244 239 285 308 334 339 342 349 356 359 351 347
251 258 243 256 270 274 270 270 263 272 275 274 256 267 253 253 257 232 207 201 245 260 275 274 295 283 314 262 286 298 288 283 285 295 297 297 301 285 273 274 272 272 272 273 265 253 244 238 238 239 238 237 236 240 238 233 235 233 234 237 241 248 248 234 264 294 324 331 331 339 346 354 360 355
238 241 250 250 240 254 262 268 272 273 277 279 269 264 263 241 255 252 219 214 224 243 269 288 250 276 281 291 275 273 289 293 299 289 293 297 286 283 282 271 275 278 284 287 268 248 238 234 234 237 239 238 238 242 238 232 235 234 235 238 243 248 246 238 234 266 289 309 316 320 322 343 360 360
226 232 231 239 236 233 248 267 268 268 272 266 265 258 253 240 246 256 228 232 223 247 260 275 276 273 281 264 280 276 291 305 306 305 294 288 288 291 283 279 270 271 276 288 282 249 237 235 237 241 242 242 243 245 239 230 233 233 233 238 241 246 244 233 226 232 241 271 296 298 307 321 348 358
223 226 231 233 227 230 233 247 252 255 258 264 263 266 267 253 238 240 255 244 243 231 246 251 291 303 277 305 284 284 284 291 301 307 302 303 286 275 300 292 279 271 266 275 267 257 255 247 246 250 249 243 247 250 244 231 232 234 232 233 239 243 244 237 227 226 223 231 279 291 307 312 322 339
225 227 233 236 228 226 226 233 240 246 251 244 251 248 253 269 281 283 278 257 233 222 248 267 240 268 274 236 279 290 299 278 253 268 304 308 301 300 266 290 295 284 277 251 236 239 234 244 246 248 247 245 247 251 249 241 235 235 232 231 234 239 241 238 229 226 225 221 240 268 276 311 312 309
226 226 227 231 228 224 227 225 234 226 244 244 254 252 245 252 253 255 253 253 248 257 259 250 272 257 271 298 262 290 335 312 300 238 225 273 291 299 305 262 286 296 288 289 288 261 257 264 256 257 248 241 242 245 251 248 243 237 233 228 230 235 237 236 232 225 221 216 221 242 255 294 306 297
226 226 225 227 229 225 225 222 223 222 219 223 237 250 234 240 235 244 252 255 265 267 259 273 265 274 287 276 283 293 288 271 259 283 308 275 277 282 300 295 278 245 260 275 273 283 244 274 262 236 245 246 239 245 239 250 245 238 231 228 227 230 233 233 230 225 220 215 217 230 244 271 294 291
238 237 233 233 228 229 231 231 227 228 229 228 225 236 231 232 233 236 243 250 245 244 254 252 255 267 263 265 262 259 261 264 281 293 285 282 287 309 293 283 271 277 266 275 283 269 270 254 282 257 245 254 215 237 218 232 233 233 226 226 225 226 228 228 228 223 219 214 215 224 238 251 286 282
241 245 243 243 246 246 247 249 247 240 239 241 241 243 242 234 222 235 240 243 235 234 236 244 243 240 254 260 258 256 267 274 264 262 270 271 287 285 295 294 303 296 204 277 272 284 262 215 256 274 272 258 212 221 232 236 234 234 227 222 222 223 224 225 224 220 215 212 212 220 234 245 250 264
229 236 239 238 238 237 236 239 246 249 248 246 248 250 250 248 242 235 231 241 247 231 238 245 240 237 242 254 258 266 262 268 275 264 262 263 260 273 278 271 271 254 360 275 305 292 248 209 229 268 267 270 244 229 238 236 235 232 225 221 218 218 220 221 221 218 210 209 207 214 228 234 246 258
234 232 235 240 235 236 232 232 234 236 247 250 246 247 252 255 249 246 247 243 238 239 232 238 248 233 239 248 251 236 238 238 269 281 275 262 256 251 259 260 265 283 230 260 289 292 286 163 249 271 271 267 271 262 253 249 241 232 222 218 215 214 216 216 218 215 209 205 204 210 225 230 234 243
236 234 234 239 242 238 233 230 228 225 228 237 246 247 241 242 251 247 241 241 239 230 230 233 243 247 212 243 250 249 228 248 263 273 273 271 275 269 255 262 267 272 191 253 258 277 283 263 265 273 279 273 278 262 252 254 252 236 221 215 209 209 210 212 214 213 206 203 202 208 224 227 226 231
242 240 236 237 242 244 238 234 230 232 237 239 243 249 253 247 249 248 246 236 232 230 225 227 236 247 243 241 251 257 237 231 247 251 264 277 272 275 290 296 269 278 239 223 194 257 270 278 276 267 273 287 284 279 281 265 259 241 220 209 203 201 203 207 212 209 203 202 204 208 216 226 225 226
250 251 251 249 249 247 245 242 237 235 236 237 241 246 249 252 248 244 236 235 233 228 226 226 232 237 239 237 240 245 246 247 251 273 314 299 278 288 292 281 285 278 264 194 208 251 264 250 250 276 277 280 283 286 288 291 266 246 218 202 196 196 199 206 209 206 202 203 209 209 213 223 229 229
246 249 249 249 253 254 251 249 243 241 235 235 237 241 247 248 251 252 248 232 232 234 235 238 241 244 246 249 249 253 259 255 257 329 318 276 268 275 277 276 277 271 279 245 204 231 270 251 232 272 276 272 279 286 286 347 339 257 219 196 192 195 200 205 208 207 202 206 210 212 213 222 231 237
249 243 241 239 242 247 252 251 247 243 233 232 234 236 242 249 249 251 247 253 244 230 233 239 243 248 254 256 256 253 253 254 235 187 241 254 252 257 248 263 264 282 291 261 164 224 252 278 225 253 287 308 259 271 324 33 17 42 191 206 199 200 202 204 208 209 208 209 211 213 217 225 233 249
244 246 245 245 246 243 243 243 243 240 226 228 227 227 231 242 248 248 239 237 252 256 251 250 239 255 249 249 246 247 245 245 236 209 230 246 228 248 255 255 277 295 273 259 158 207 267 263 257 210 316 301 281 315 324 23 57 114 127 195 225 222 213 216 216 218 217 214 214 217 216 223 212 241
251 250 257 255 248 244 243 239 238 237 226 225 234 225 228 236 249 253 247 236 234 247 245 253 240 239 239 238 237 243 250 246 228 221 220 225 223 232 249 248 227 238 254 271 170 184 264 189 262 182 202 248 290 278 338 299 219 192 184 188 223 220 216 228 237 231 228 223 220 221 219 213 198 221
258 266 258 259 255 248 246 245 246 249 248 255 261 246 237 236 248 266 264 258 243 247 246 247 251 250 247 242 238 240 244 245 237 221 214 216 214 217 233 242 236 244 249 246 160 187 249 211 249 196 245 202 252 291 264 254 250 214 204 200 213 206 191 219 221 229 219 225 226 226 226 214 208 210
260 265 274 272 274 269 258 253 248 240 228 223 210 246 254 277 290 283 277 274 273 266 266 263 259 254 249 251 247 243 241 242 241 237 228 215 213 212 220 226 234 248 254 234 172 210 226 263 245 245 240 225 275 243 282 272 241 228 199 214 219 212 197 210 212 233 220 213 218 216 219 216 215 216
285 296 292 295 303 322 320 312 301 301 300 300 258 258 266 268 268 274 268 269 270 268 266 267 266 263 257 256 249 238 242 242 237 241 238 237 222 217 222 223 229 241 255 268 197 201 204 238 214 199 235 221 248 279 253 271 273 90 249 223 223 221 208 202 219 228 218 213 225 209 212 218 213 215
285 286 280 278 294 305 304 299 295 294 289 269 270 268 264 266 271 262 255 244 242 251 260 259 259 260 259 258 258 251 248 248 242 243 247 248 239 229 228 227 233 237 246 253 251 213 206 231 246 224 219 226 232 244 261 254 251 195 226 206 209 219 207 204 224 230 223 214 215 209 206 224 215 200
261 273 284 295 295 293 289 281 278 278 272 266 260 257 257 263 254 242 235 241 232 235 241 244 249 255 253 251 254 257 259 260 260 255 257 251 250 246 247 246 242 242 240 244 242 233 219 227 244 244 229 222 229 242 230 251 242 245 213 186 250 218 208 208 217 221 225 208 215 207 214 216 209 197
294 296 293 290 290 288 278 272 262 256 258 255 254 253 250 241 238 228 231 235 230 236 240 239 241 244 250 251 249 249 249 252 253 253 261 265 261 243 247 262 262 252 246 243 238 235 232 231 236 241 245 238 225 246 242 251 261 253 225 213 242 349 204 200 210 220 216 219 218 216 226 213 216 183
291 290 282 267 260 259 260 256 253 255 260 261 259 257 238 227 231 231 222 225 228 239 243 247 247 250 249 254 258 251 242 248 251 238 248 255 260 251 242 249 267 269 251 233 225 225 229 232 230 222 236 245 242 235 247 236 255 261 245 224 193 232 215 184 207 214 213 221 223 225 228 213 219 211
310 305 298 288 278 267 263 255 244 240 239 241 247 250 249 246 246 245 242 240 244 251 252 258 263 265 259 253 250 252 248 250 255 238 231 241 255 244 225 248 262 272 276 246 236 225 223 223 223 220 222 229 238 243 230 229 239 246 255 230 213 239 203 196 207 217 211 204 212 230 224 213 215 214
301 298 289 292 291 286 280 278 265 254 241 236 231 237 241 243 242 241 225 232 242 262 279 272 265 264 260 258 255 252 254 254 256 242 239 244 247 251 206 244 259 268 274 274 249 233 223 227 222 223 223 227 228 233 233 245 238 231 242 241 219 228 224 214 205 212 166 178 221 226 237 223 219 213
285 288 296 290 290 287 283 280 278 276 272 267 257 244 241 241 242 234 248 343 290 264 248 249 253 252 250 253 254 250 248 261 259 249 231 255 236 244 243 249 256 253 253 262 265 255 240 236 237 240 242 242 242 230 224 232 246 238 229 236 223 233 231 208 207 195 181 196 203 221 231 237 226 215
259 290 292 293 290 283 283 284 287 288 284 278 272 265 252 239 229 110 209 232 227 237 254 255 251 250 245 249 253 251 243 249 261 259 224 230 236 238 243 246 254 254 250 258 263 258 233 241 234 252 259 259 262 258 222 220 235 241 243 236 232 233 238 210 201 196 196 205 195 221 238 240 237 214
282 273 281 286 288 290 290 285 284 284 284 284 282 280 275 262 132 177 221 232 225 237 242 245 251 250 250 254 259 255 246 242 253 252 251 236 239 240 241 244 251 258 255 253 256 249 222 230 213 228 243 249 247 262 266 213 208 227 225 235 229 227 232 219 204 199 190 206 201 210 230 238 239 212
285 279 270 274 275 278 280 283 283 280 280 283 283 283 280 278 207 218 238 233 233 235 238 241 250 249 249 253 259 259 250 241 250 247 246 246 243 245 248 252 248 252 255 252 249 251 220 229 213 219 236 249 249 248 255 229 217 221 219 234 246 228 224 217 205 212 208 203 208 209 225 233 247 223
287 289 288 280 281 285 288 292 293 290 284 281 282 282 277 272 237 241 254 245 240 245 240 238 249 253 256 257 258 261 257 244 244 248 247 246 247 246 241 246 249 245 248 254 247 241 226 228 219 216 219 239 250 251 267 257 191 248 229 229 238 237 207 211 220 225 219 203 214 219 217 237 241 239
272 282 282 291 305 314 319 325 322 317 315 307 298 294 290 286 249 248 255 254 251 256 253 246 252 249 251 252 248 253 257 255 249 252 254 252 243 246 247 244 250 248 247 255 248 241 226 226 221 220 217 229 237 244 243 256 253 245 219 219 229 240 223 206 227 228 223 214 222 225 227 242 5 48
340 341 344 349 348 350 345 340 339 338 338 343 344 346 342 334 300 264 265 266 264 263 250 244 248 254 252 249 251 253 253 250 249 250 250 251 250 247 250 246 247 251 245 251 257 248 226 226 225 224 225 227 235 244 268 258 274 270 259 242 228 227 228 200 220 223 231 226 202 189 228 218 235 212
4 355 353 349 346 343 340 335 332 329 327 332 332 333 328 320 307 282 271 270 275 279 264 270 268 263 259 258 249 244 253 252 247 249 252 254 251 246 245 244 248 242 243 252 253 254 243 231 235 237 238 254 280 10 301 278 267 269 260 248 216 225 236 231 221 214 231 202 177 203 213 208 219 198
6 357 344 348 344 335 333 329 327 323 320 322 323 322 316 308 300 292 285 280 287 294 303 298 294 289 288 277 266 250 249 258 262 257 250 249 255 253 245 236 241 243 236 246 250 248 253 248 245 202 202 237 233 209 244 249 262 268 266 263 261 216 222 229 235 236 227 189 176 203 216 202 109 221
352 344 334 333 330 327 322 318 318 318 316 316 316 315 310 301 300 301 298 293 288 285 283 285 290 291 283 287 281 271 265 264 261 263 261 253 249 251 246 234 231 236 238 247 255 260 259 253 218 191 211 219 228 217 242 249 252 260 271 276 267 253 235 231 231 235 241 262 241 224 196 183 141 203
343 319 318 315 317 314 316 313 312 311 310 312 311 309 301 301 298 297 298 297 292 279 275 276 288 296 299 294 288 279 265 258 249 248 250 250 247 247 248 246 238 237 240 243 254 258 256 248 229 207 212 227 227 228 240 251 257 256 262 268 276 268 257 228 223 244 251 261 262 262 259 240 223 230
289 303 297 306 303 306 306 307 305 308 308 306 304 301 297 291 286 287 287 292 292 288 267 257 258 269 285 295 297 288 284 283 274 262 252 251 248 246 245 247 244 242 245 244 247 257 255 248 235 209 224 233 230 227 237 241 251 263 264 265 271 266 258 205 209 205 224 237 245 281 300 282 277 280